[[{"header":{"parameterUnit":"m.s-1","parameterCategory":1,"la1":30.2991,"la2":30.254,"lo1":-89.0895,"lo2":-89.0444,"dy":0.0017,"dx":0.0017,"nx":28,"ny":28,"refTime":"2023-09-14T03:00:00:Z","depth":0,"parameterNumber":2,"parameterNumberName":"U-component_of_WINDS"},"data":[0,0,0,0,0,0,0,0,0,0,0,0,0,0,0,0,0,0,0,0,0,0,0,0,0,0,0,0,0,0,0,0,0,0,0,0,0,0,0,0,0,0,0,0,0,0,0,0,0,0,0,0,0,0,0,0,0,0,-2.8483,-2.8482,0,-2.8425,-2.8424,-2.8424,-2.8357,-2.8356,-2.8355,-2.8354,-2.8293,-2.8292,-2.8291,0,0,0,0,0,0,0,0,0,0,0,0,0,-2.8534,-2.8533,-2.8483,-2.8482,-2.8481,-2.8425,-2.8424,-2.8424,-2.8357,-2.8356,-2.8355,-2.8354,-2.8293,-2.8292,-2.8291,0,0,0,0,0,0,0,0,0,0,0,0,0,-2.8497,-2.8533,-2.8483,-2.8442,-2.8437,-2.8425,-2.8424,-2.8423,-2.8357,-2.8356,-2.8354,-2.8353,-2.8293,-2.8292,-2.8291,-2.8314,0,0,-2.8288,-2.8287,0,0,0,0,0,0,0,0,-2.8499,-2.8496,-2.8448,-2.8444,-2.844,-2.8397,-2.842,-2.8387,-2.8358,-2.8388,-2.8354,-2.8352,-2.8328,-2.8324,-2.8317,-2.8312,-2.8309,-2.8288,-2.8287,-2.8287,-2.8286,0,0,0,0,0,0,0,-2.8502,-2.8498,-2.846,-2.8448,-2.8442,-2.8425,-2.8418,-2.8413,-2.8367,-2.8385,-2.838,-2.8374,-2.8326,-2.8318,-2.8315,-2.8308,-2.8288,-2.8287,-2.8286,-2.8286,-2.8316,-2.8318,0,0,0,0,0,0,-2.8511,-2.85,-2.8462,-2.8458,-2.8467,-2.8426,-2.8418,-2.8412,-2.8367,-2.8359,-2.8376,-2.8371,-2.832,-2.8316,-2.8312,-2.8334,-2.8287,-2.8286,-2.8285,-2.8315,-2.8317,-2.8318,0,0,0,0,0,0,-2.8513,-2.8508,-2.8464,-2.8478,-2.8471,-2.8426,-2.842,-2.8412,-2.8404,-2.836,-2.8351,-2.8376,-2.8319,-2.8314,-2.8314,-2.8331,-2.8285,-2.8284,-2.8313,-2.8316,-2.8318,-2.838,0,0,0,0,0,0,-2.8514,-2.8509,-2.8518,-2.8479,-2.847,-2.8468,-2.8421,-2.8412,-2.8402,-2.8396,-2.8358,-2.835,-2.8317,-2.8316,-2.8313,-2.8329,-2.8283,-2.8311,-2.8314,-2.8317,-2.8376,-2.8384,-2.839,0,0,0,0,0,-2.8516,-2.8538,-2.8519,-2.8515,-2.8481,-2.8469,-2.8464,-2.8426,-2.8404,-2.8412,-2.8384,-2.8351,-2.8331,-2.8317,-2.8313,-2.8328,-2.831,-2.8313,-2.8317,-2.8372,-2.8382,-2.839,0,0,0,0,0,0,-2.858,-2.8532,-2.851,-2.852,-2.8499,-2.8457,-2.8466,-2.8438,-2.8422,-2.8417,-2.8371,-2.8363,-2.8368,-2.8349,-2.8334,-2.8347,-2.8316,-2.8318,-2.8359,-2.8368,-2.8375,-2.8378,-2.8283,0,0,0,0,0,-2.8595,-2.859,-2.8548,-2.8561,-2.8552,-2.8511,-2.8505,-2.8478,-2.8454,-2.8444,-2.8416,-2.8393,-2.8381,-2.8374,-2.8361,-2.8374,-2.8363,-2.8383,-2.839,-2.8396,-2.8398,-2.8401,-2.8408,-2.8329,-2.8329,-2.8329,0,0,-2.8626,-2.86,-2.8599,-2.8573,-2.8553,-2.8548,-2.8504,-2.8501,-2.8495,-2.8443,-2.8441,-2.842,-2.8391,-2.8397,-2.8399,-2.8381,-2.8418,-2.8401,-2.8406,-2.8404,-2.8405,-2.8412,-2.8419,-2.8331,-2.8331,-2.8331,0,0,-2.8679,-2.866,-2.8667,-2.8649,-2.862,-2.8593,-2.8595,-2.8558,-2.8542,-2.8539,-2.8499,-2.8493,-2.8474,-2.8454,-2.8442,-2.8489,-2.8457,-2.8486,-2.8523,-2.8526,-2.8532,-2.8538,-2.8551,-2.8557,-2.8489,-2.8489,-2.8489,0,-2.8721,-2.8712,-2.8674,-2.8673,-2.8661,-2.8615,-2.8621,-2.8605,-2.8574,-2.8566,-2.8548,-2.8523,-2.85,-2.85,-2.8511,-2.8504,-2.8503,-2.8488,-2.8535,-2.854,-2.8544,-2.8556,-2.8562,-2.8492,-2.8492,-2.8492,-2.8491,0,-2.8763,-2.8758,-2.8767,-2.8738,-2.8728,-2.8731,-2.8692,-2.8687,-2.8661,-2.8636,-2.8633,-2.8605,-2.8584,-2.8583,-2.8558,-2.8579,-2.8568,-2.8544,-2.851,-2.8555,-2.8566,-2.8571,-2.8497,-2.8496,-2.8495,-2.8494,0,0,-2.8852,-2.8803,-2.8806,-2.8792,-2.8758,-2.8752,-2.8752,-2.8733,-2.8728,-2.8708,-2.8705,-2.8691,-2.8667,-2.8653,-2.8626,-2.8629,-2.8664,-2.8603,-2.8602,-2.8613,-2.8682,-2.8699,-2.8705,-2.8645,-2.8646,-2.8646,-2.8683,0,-2.8896,-2.8894,-2.886,-2.8866,-2.886,-2.8816,-2.8816,-2.8794,-2.8771,-2.8761,-2.8735,-2.8724,-2.8696,-2.8686,-2.8688,-2.866,-2.8677,-2.8657,-2.8639,-2.8639,-2.8644,-2.8711,-2.8729,-2.8765,-2.8687,-2.8688,-2.8689,0,-2.8947,-2.893,-2.8937,-2.8901,-2.8897,-2.8897,-2.8876,-2.8868,-2.8842,-2.8825,-2.881,-2.8779,-2.8775,-2.8746,-2.8739,-2.8726,-2.8717,-2.8702,-2.8702,-2.8696,-2.8664,-2.8704,-2.8776,-2.878,-2.8695,-2.8695,-2.8694,0,-2.9007,-2.8987,-2.8987,-2.8977,-2.8936,-2.8937,-2.892,-2.8893,-2.8883,-2.8865,-2.8857,-2.8839,-2.8828,-2.8814,-2.8778,-2.8761,-2.8774,-2.8742,-2.8757,-2.8757,-2.8759,-2.8758,-2.8827,-2.8759,-2.8759,-2.8759,-2.8759,0,-2.9058,-2.9063,-2.9014,-2.9014,-2.9017,-2.8978,-2.8983,-2.8961,-2.8938,-2.8931,-2.8894,-2.8889,-2.8844,-2.8833,-2.8806,-2.8802,-2.8798,-2.8782,-2.8774,-2.8784,-2.8785,-2.8775,-2.877,-2.876,-2.876,-2.8759,-2.8759,0,-2.9125,-2.9092,-2.9089,-2.9052,-2.9042,-2.9046,-2.9013,-2.9011,-2.8986,-2.8979,-2.8975,-2.8935,-2.8921,-2.8885,-2.8861,-2.8842,-2.8845,-2.8832,-2.8853,-2.8848,-2.8863,-2.8861,-2.8924,-2.893,-2.8862,-2.8862,-2.8863,0,-2.9157,-2.916,-2.9123,-2.9117,-2.9101,-2.9092,-2.9082,-2.9044,-2.9035,-2.9005,-2.9006,-2.8989,-2.8973,-2.8951,-2.8919,-2.89,-2.8885,-2.8909,-2.8882,-2.8891,-2.8881,-2.888,-2.8879,-2.8914,-2.8914,-2.8915,-2.8916,0,-2.9218,-2.9202,-2.919,-2.9171,-2.916,-2.9144,-2.9125,-2.9122,-2.908,-2.9071,-2.9056,-2.9044,-2.902,-2.9002,-2.8978,-2.8959,-2.8929,-2.8925,-2.8927,-2.8935,-2.8946,-2.8937,-2.8866,-2.8923,-2.8922,-2.8922,-2.8921,-2.8921,-2.9266,-2.9266,-2.924,-2.9226,-2.9209,-2.9192,-2.9188,-2.9163,-2.915,-2.9128,-2.9107,-2.9093,-2.9066,-2.9031,-2.9014,-2.9002,-2.8987,-2.8991,-2.8991,-2.8991,-2.8994,-2.8951,-2.8998,-2.8998,-2.8998,-2.8997,-2.8997,0,-2.9322,-2.9304,-2.9292,-2.9268,-2.9257,-2.9233,-2.9211,-2.9203,-2.9192,-2.917,-2.9156,-2.9138,-2.912,-2.9088,-2.9067,-2.9064,-2.905,-2.9059,-2.9057,-2.9053,-2.9011,-2.901,-2.9071,-2.9071,-2.9071,-2.9071,-2.9071,-2.9071,-2.935,-2.9348,-2.9329,-2.9316,-2.9297,-2.9285,-2.9274,-2.9258,-2.924,-2.9222,-2.9208,-2.9188,-2.916,-2.9138,-2.912,-2.9111,-2.9103,-2.9117,-2.9103,-2.9063,-2.9056,-2.905,-2.9048,-2.9117,-2.9117,-2.9146,-2.9146,-2.9146]},{"header":{"parameterUnit":"m.s-1","parameterCategory":1,"la1":30.2991,"la2":30.254,"lo1":-89.0895,"lo2":-89.0444,"dy":0.0017,"dx":0.0017,"nx":28,"ny":28,"refTime":"2023-09-14T03:00:00:Z","depth":0,"parameterNumber":3,"parameterNumberName":"V-component_of_WINDS"},"data":[0,0,0,0,0,0,0,0,0,0,0,0,0,0,0,0,0,0,0,0,0,0,0,0,0,0,0,0,0,0,0,0,0,0,0,0,0,0,0,0,0,0,0,0,0,0,0,0,0,0,0,0,0,0,0,0,0,0,-1.7942,-1.7941,0,-1.7882,-1.7882,-1.7881,-1.787,-1.7871,-1.7871,-1.7872,-1.7808,-1.7806,-1.7804,0,0,0,0,0,0,0,0,0,0,0,0,0,-1.8044,-1.8043,-1.7942,-1.7941,-1.7941,-1.7883,-1.7882,-1.7881,-1.787,-1.7871,-1.7871,-1.7872,-1.7809,-1.7806,-1.7804,0,0,0,0,0,0,0,0,0,0,0,0,0,-1.7994,-1.8042,-1.7942,-1.7928,-1.7926,-1.7883,-1.7882,-1.7881,-1.787,-1.7871,-1.7871,-1.7872,-1.781,-1.7807,-1.7803,-1.7769,0,0,-1.7793,-1.7792,0,0,0,0,0,0,0,0,-1.7997,-1.799,-1.7931,-1.7929,-1.7927,-1.7885,-1.7895,-1.7843,-1.787,-1.7891,-1.7872,-1.7872,-1.7833,-1.7828,-1.7815,-1.7766,-1.7763,-1.7793,-1.7791,-1.779,-1.7789,0,0,0,0,0,0,0,-1.8,-1.7993,-1.7918,-1.793,-1.7928,-1.7924,-1.7918,-1.7885,-1.7859,-1.7889,-1.7889,-1.7882,-1.7832,-1.7818,-1.7813,-1.7762,-1.7793,-1.779,-1.7788,-1.7787,-1.768,-1.7679,0,0,0,0,0,0,-1.8007,-1.7996,-1.792,-1.7917,-1.7964,-1.7922,-1.7915,-1.7897,-1.7859,-1.7854,-1.7881,-1.7882,-1.7823,-1.7817,-1.7811,-1.7766,-1.779,-1.7787,-1.7785,-1.7681,-1.768,-1.7679,0,0,0,0,0,0,-1.8009,-1.8,-1.7923,-1.7956,-1.7946,-1.7919,-1.79,-1.7896,-1.7882,-1.7853,-1.7848,-1.7872,-1.7823,-1.7815,-1.7779,-1.7764,-1.7785,-1.7782,-1.7682,-1.7681,-1.768,-1.7678,0,0,0,0,0,0,-1.8012,-1.8001,-1.7988,-1.7956,-1.7944,-1.7892,-1.7899,-1.7894,-1.7877,-1.7876,-1.7843,-1.7838,-1.7823,-1.7784,-1.7776,-1.776,-1.778,-1.7683,-1.7682,-1.768,-1.7679,-1.7677,-1.7675,0,0,0,0,0,-1.8015,-1.7989,-1.7987,-1.7978,-1.7927,-1.7892,-1.7885,-1.787,-1.7876,-1.7862,-1.7843,-1.7839,-1.7768,-1.778,-1.7771,-1.7754,-1.7684,-1.7682,-1.768,-1.768,-1.7677,-1.7675,0,0,0,0,0,0,-1.802,-1.7985,-1.7982,-1.7945,-1.7922,-1.789,-1.7872,-1.7867,-1.7841,-1.7841,-1.7823,-1.7816,-1.778,-1.7764,-1.7778,-1.7718,-1.7726,-1.7722,-1.7729,-1.7726,-1.7724,-1.7728,-1.7777,0,0,0,0,0,-1.8016,-1.7991,-1.7962,-1.7932,-1.7921,-1.7899,-1.7882,-1.7873,-1.7847,-1.7837,-1.7815,-1.779,-1.7762,-1.7744,-1.7716,-1.7678,-1.7669,-1.7662,-1.7659,-1.7658,-1.7654,-1.7631,-1.7626,-1.7672,-1.7672,-1.7672,0,0,-1.8009,-1.7987,-1.7972,-1.7932,-1.7913,-1.7886,-1.789,-1.7862,-1.7841,-1.7832,-1.7796,-1.778,-1.7751,-1.7713,-1.7695,-1.7698,-1.7639,-1.7655,-1.7654,-1.7651,-1.7628,-1.7624,-1.762,-1.7671,-1.7671,-1.7672,0,0,-1.7981,-1.7963,-1.7936,-1.7916,-1.7887,-1.7873,-1.7866,-1.7836,-1.7824,-1.7788,-1.7781,-1.7756,-1.7709,-1.7688,-1.7671,-1.7636,-1.763,-1.7628,-1.7615,-1.7593,-1.7589,-1.7586,-1.7571,-1.7567,-1.7624,-1.7624,-1.7624,0,-1.7975,-1.7935,-1.7922,-1.7893,-1.7876,-1.7868,-1.7839,-1.7821,-1.7784,-1.7772,-1.7776,-1.7716,-1.7696,-1.7652,-1.7644,-1.7631,-1.7622,-1.763,-1.7591,-1.7587,-1.7584,-1.757,-1.7565,-1.7624,-1.7624,-1.7624,-1.7624,0,-1.7929,-1.7901,-1.7882,-1.7847,-1.7828,-1.78,-1.7781,-1.7763,-1.7755,-1.774,-1.7703,-1.7679,-1.7646,-1.7635,-1.7628,-1.759,-1.7593,-1.7595,-1.7602,-1.7579,-1.7566,-1.7561,-1.7624,-1.7624,-1.7624,-1.7624,0,0,-1.79,-1.7859,-1.7852,-1.7835,-1.7803,-1.7781,-1.7753,-1.7721,-1.7705,-1.768,-1.7654,-1.7615,-1.7616,-1.7597,-1.7587,-1.7568,-1.754,-1.7572,-1.7571,-1.7565,-1.7495,-1.7492,-1.7487,-1.7537,-1.7536,-1.7535,-1.7497,0,-1.7867,-1.7815,-1.7803,-1.7758,-1.7732,-1.7725,-1.7699,-1.7676,-1.7662,-1.7637,-1.7621,-1.7592,-1.7597,-1.7585,-1.7566,-1.7547,-1.7525,-1.755,-1.7511,-1.751,-1.7516,-1.748,-1.7477,-1.7441,-1.7492,-1.7491,-1.749,0,-1.7821,-1.7795,-1.7749,-1.7719,-1.7708,-1.7685,-1.7655,-1.7632,-1.7605,-1.7596,-1.7575,-1.7567,-1.7536,-1.7547,-1.7503,-1.7521,-1.7504,-1.7493,-1.7491,-1.7485,-1.7497,-1.747,-1.743,-1.7424,-1.7482,-1.7483,-1.7484,0,-1.7801,-1.7756,-1.7722,-1.7708,-1.7674,-1.7658,-1.7643,-1.7618,-1.7599,-1.7573,-1.7561,-1.7532,-1.7515,-1.7492,-1.7476,-1.7486,-1.7432,-1.7443,-1.7422,-1.7422,-1.7409,-1.7409,-1.7363,-1.7403,-1.7403,-1.7403,-1.7403,0,-1.7764,-1.7735,-1.7713,-1.7691,-1.7658,-1.7644,-1.7612,-1.7597,-1.7574,-1.7549,-1.7542,-1.7518,-1.75,-1.7474,-1.7461,-1.7426,-1.7419,-1.7409,-1.7406,-1.7408,-1.7409,-1.7395,-1.7396,-1.7402,-1.7402,-1.7402,-1.7403,0,-1.7736,-1.772,-1.7682,-1.7653,-1.7645,-1.7622,-1.7597,-1.7575,-1.7561,-1.753,-1.7521,-1.7499,-1.7468,-1.745,-1.7411,-1.7403,-1.7362,-1.7361,-1.7371,-1.7369,-1.7348,-1.7349,-1.7289,-1.728,-1.7328,-1.7328,-1.7328,0,-1.7712,-1.7689,-1.7658,-1.7641,-1.7626,-1.7599,-1.758,-1.7566,-1.7547,-1.7515,-1.7497,-1.7466,-1.744,-1.739,-1.737,-1.7339,-1.7336,-1.7317,-1.7331,-1.7334,-1.7333,-1.7333,-1.733,-1.7314,-1.7313,-1.7313,-1.7313,0,-1.767,-1.7663,-1.7637,-1.7608,-1.7586,-1.7563,-1.7539,-1.7526,-1.7507,-1.7486,-1.7455,-1.7434,-1.7395,-1.7363,-1.7331,-1.7315,-1.731,-1.7309,-1.7302,-1.7303,-1.7308,-1.7303,-1.7361,-1.731,-1.731,-1.731,-1.731,-1.731,-1.7641,-1.762,-1.7595,-1.7566,-1.7547,-1.7526,-1.7504,-1.7488,-1.7461,-1.7427,-1.7421,-1.7387,-1.7361,-1.7318,-1.7301,-1.7274,-1.7277,-1.7268,-1.7265,-1.7262,-1.726,-1.7315,-1.7268,-1.7268,-1.7269,-1.7269,-1.7269,0,-1.7596,-1.758,-1.7554,-1.7521,-1.7499,-1.7498,-1.7472,-1.7453,-1.7423,-1.74,-1.7374,-1.7338,-1.7307,-1.7285,-1.7253,-1.7236,-1.7233,-1.7228,-1.7227,-1.7223,-1.726,-1.7268,-1.7231,-1.7231,-1.7231,-1.7231,-1.7231,-1.7231,-1.757,-1.7535,-1.7525,-1.748,-1.7464,-1.7431,-1.7416,-1.7395,-1.7377,-1.7336,-1.7311,-1.7297,-1.7274,-1.7241,-1.7212,-1.7207,-1.7194,-1.7189,-1.7183,-1.7217,-1.7221,-1.7225,-1.7232,-1.7187,-1.7187,-1.7148,-1.7147,-1.7147]}]]